K9JM Weather Reports


time (UTC)temp
F
wind
direction
speed
knots
gust
knots
rain 1hr
in
rain 24hr
in
rain mn
in
humidity
%
barometer
mb
20260507134515 54 0.0 0.0 0.00 0.00 0.00 94 1018.9
20260507133035 54 0.0 0.0 0.00 0.00 0.00 94 1018.8
20260507131516 54 0.0 0.0 0.00 0.00 0.00 94 1018.7
20260507130035 54 0.0 0.0 0.00 0.00 0.00 94 1018.8
20260507124516 54 0.0 0.0 0.00 0.00 0.00 94 1018.7
20260507123015 54 0.0 0.0 0.00 0.00 0.00 94 1018.6
20260507121516 55 0.0 0.0 0.00 0.00 0.00 93 1018.7
20260507120015 55 0.0 0.0 0.00 0.00 0.00 94 1018.7
20260507114515 55 0.0 0.0 0.00 0.00 0.00 94 1018.7
20260507113015 56 0.0 0.0 0.00 0.00 0.00 93 1018.7
20260507111515 56 0.0 0.0 0.00 0.00 0.00 93 1018.6
20260507110015 56 0.0 0.0 0.00 0.00 0.00 93 1018.7
20260507104515 57 0.0 0.0 0.00 0.00 0.00 93 1018.8
20260507103035 57 0.0 0.0 0.00 0.00 0.00 93 1018.7
20260507101516 57 0.0 0.0 0.00 0.00 0.00 93 1018.8
20260507100015 57 0.0 0.0 0.00 0.00 0.00 93 1018.7
20260507094517 57 0.0 0.0 0.00 0.00 0.00 92 1018.8
20260507093017 57 0.0 0.0 0.00 0.00 0.00 92 1018.8
20260507091537 57 0.0 0.0 0.00 0.00 0.00 92 1018.9
20260507090017 57 0.0 0.0 0.00 0.00 0.00 92 1018.9
20260507084517 57 0.0 0.0 0.00 0.00 0.00 92 1018.9
20260507083017 58 0.0 0.0 0.00 0.00 0.00 92 1018.8
20260507081517 58 0.0 0.0 0.00 0.00 0.00 92 1018.8
20260507080017 58 0.0 0.0 0.00 0.00 0.00 92 1018.9
20260507074517 58 0.0 0.0 0.00 0.00 0.00 91 1018.9
20260507073017 58 0.0 0.0 0.00 0.00 0.00 91 1018.8
20260507071517 59 0.0 0.0 0.00 0.00 0.00 91 1018.9
20260507070017 59 0.0 0.0 0.00 0.00 0.00 91 1019.0
20260507064537 59 0.0 0.0 0.00 0.00 0.00 90 1018.9
20260507063016 59 0.0 0.0 0.00 0.00 0.00 90 1018.9
20260507061516 59 0.0 0.0 0.00 0.00 0.00 90 1018.9
20260507060016 59 0.0 0.0 0.00 0.00 0.00 90 1019.0
20260507054616 59 0.0 0.0 0.00 0.00 0.00 89 1018.9
20260507053016 59 0.0 0.0 0.00 0.00 0.00 89 1018.9
20260507051536 59 0.0 0.0 0.00 0.00 0.00 89 1018.9
20260507050036 59 0.0 0.0 0.00 0.00 0.00 89 1018.9
20260507044536 59 0.0 0.0 0.00 0.00 0.00 88 1018.8
20260507043016 59 0.0 0.0 0.00 0.00 0.00 88 1018.6
20260507041516 60 0.0 0.0 0.00 0.00 0.00 87 1018.6
20260507040016 60 0.0 0.0 0.00 0.00 0.00 86 1018.5
20260507034516 60 0.0 0.0 0.00 0.00 0.00 85 1018.4
20260507033036 61 0.0 0.0 0.00 0.00 0.00 84 1018.2
20260507031516 61 0.0 0.0 0.00 0.00 0.00 84 1018.0
20260507030016 62 0.0 0.0 0.00 0.00 0.00 83 1018.0
20260507024516 63 0.0 0.0 0.00 0.00 0.00 82 1018.1
20260507023016 63 0.0 0.0 0.00 0.00 0.00 81 1018.0
20260507021516 64 0.0 0.0 0.00 0.00 0.00 80 1018.1
20260507020016 64 0.0 0.0 0.00 0.00 0.00 79 1018.2
20260507014516 65 0.0 0.0 0.00 0.00 0.00 78 1018.1
20260507013016 65 0.0 0.0 0.00 0.00 0.00 78 1018.3
20260507011516 65 0.0 0.0 0.00 0.00 0.00 77 1018.2
20260507010016 65 0.0 0.0 0.00 0.00 0.00 77 1018.3
20260507004516 66 0.0 0.0 0.00 0.00 0.00 76 1018.4
20260507003016 66 0.0 0.0 0.00 0.00 0.00 75 1018.4
20260507001516 66 0.0 0.0 0.00 0.00 0.00 75 1018.5
20260507000016 66 0.0 0.0 0.00 0.00 0.00 77 1018.4
20260506234516 65 0.0 0.0 0.00 0.00 0.00 77 1018.4
20260506233016 65 0.0 0.0 0.00 0.00 0.00 77 1018.4
20260506231516 65 0.0 0.0 0.00 0.00 0.00 77 1018.6
20260506230016 65 0.0 0.0 0.00 0.00 0.00 78 1018.9
20260506224516 64 0.0 0.0 0.00 0.00 0.00 78 1019.0
20260506223016 64 0.0 0.0 0.00 0.00 0.00 78 1019.1
20260506221516 63 0.0 0.0 0.00 0.00 0.00 79 1019.3
20260506220016 63 0.0 0.0 0.00 0.00 0.00 77 1019.4
20260506214516 63 0.0 0.0 0.00 0.00 0.00 79 1019.6
20260506213015 63 0.0 0.0 0.00 0.00 0.00 80 1019.8
20260506211516 63 0.0 0.0 0.00 0.00 0.00 81 1020.0
20260506210016 63 0.0 0.0 0.00 0.00 0.00 79 1020.0
20260506204516 61 0.0 0.0 0.00 0.00 0.00 82 1020.2
20260506203015 61 0.0 0.0 0.00 0.00 0.00 83 1020.3
20260506201516 61 0.0 0.0 0.00 0.00 0.00 81 1020.4
20260506200015 60 0.0 0.0 0.00 0.00 0.00 81 1020.2
20260506194516 61 0.0 0.0 0.00 0.00 0.00 82 1020.6
20260506193016 60 0.0 0.0 0.00 0.00 0.00 78 1020.6
20260506191515 59 0.0 0.0 0.00 0.00 0.00 83 1020.7
20260506190015 59 0.0 0.0 0.00 0.00 0.00 81 1020.8
20260506184515 58 0.0 0.0 0.00 0.00 0.00 81 1020.9
20260506183015 58 0.0 0.0 0.00 0.00 0.00 82 1020.8
20260506181515 57 0.0 0.0 0.00 0.00 0.00 82 1020.9
20260506180016 57 0.0 0.0 0.00 0.00 0.00 82 1020.9
20260506174515 57 0.0 0.0 0.00 0.00 0.00 84 1020.8
20260506173036 57 0.0 0.0 0.00 0.00 0.00 84 1020.7
20260506171515 56 0.0 0.0 0.00 0.00 0.00 84 1020.5
20260506170015 56 0.0 0.0 0.00 0.00 0.00 85 1020.6
20260506164515 56 0.0 0.0 0.00 0.00 0.00 85 1020.5
20260506163036 55 0.0 0.0 0.00 0.01 0.00 86 1020.5
20260506161535 55 0.0 0.0 0.00 0.01 0.00 87 1020.4
20260506160015 55 0.0 0.0 0.00 0.01 0.00 88 1020.3
20260506154535 54 0.0 0.0 0.00 0.01 0.00 89 1020.3
20260506153015 54 0.0 0.0 0.00 0.01 0.00 90 1020.1
20260506151535 54 0.0 0.0 0.00 0.01 0.00 91 1020.3
20260506150015 53 0.0 0.0 0.00 0.01 0.00 92 1020.4
20260506144515 53 0.0 0.0 0.00 0.01 0.00 93 1020.3
20260506143015 53 0.0 0.0 0.00 0.01 0.00 93 1020.3
20260506141515 53 0.0 0.0 0.00 0.01 0.00 93 1019.9
20260506140015 53 0.0 0.0 0.00 0.01 0.00 93 1019.9